SL-14 DEB

Satellite information

Favourite Embed

Satellite Type and Status

DEBRISIN ORBIT

Key statistics

Satellite SL-14 DEB at a glance.

Uptime

12495

Days in orbit

Revolutions

≈ 12.9

Per day

Orbit

LEO

Low Earth Orbit

Inclination

82.7

Latest

Satellite identification and parameters

Extended collection of information and parameters for SL-14 DEB.

Object identification

Identified? True

Debris? True

Object name: SL-14 DEB

International designator: 1991-056BV

Object number (NORAD): 45331

Object ID (CCSDS): 45331

Country: COMMONWEALTH OF INDEPENDENT STATES (CIS)

Current information (Y/N): Y

RCS size: SMALL

Orbital parameters

Period: 111.641 minutes

Inclination: 82.6689 deg

SMA: 7680.284 km

Apoapsis: 1464.524 km

Periapsis: 1139.774 km

RAAN: 49.1579 deg

Eccentricy: 0.02114182

Argument of periapsis: 39.5523 deg

Mean anomaly: 322.0796 deg

Mean motion: 12.89842935 rev/day

Mean motion (dot): 0.00002092 rev/day2

B* drag term: 0.0072262303 1/REarth

Two-line elements (TLE)

Creation date: Oct. 30, 2025, 3:32 a.m.

Reference frame: TEME

Reference center: EARTH

Epoch: Oct. 29, 2025, 1:48 p.m. UTC

TLE line 0: 0 SL-14 DEB

TLE line 1: 1 45331U 91056BV 25302.57567002 .00002092 00000-0 72262-2 0 9995

TLE line 2: 2 45331 82.6689 49.1579 0211418 39.5523 322.0796 12.89842935265650

Live tracking on map

Real-time ground track for satellite SL-14 DEB.

In-orbit conjunctions

A list of the most updated potential collisions computed for object SL-14 DEB.

Target Orbit TCA Probability of collision Miss distance Type
COSMOS 2038 LEO 2025-06-08 22:52:59 0.0001239015 828.0 (m) PAYLOAD

Associated space launch

Third generation meteorological satellite

SL-14 DEB was lifted into orbit during the mission ‘Tsiklon-3 | Meteor-3 5’, on board a Tsiklon-3 space rocket.

The launch took place on Aug. 15, 1991, 9:15 a.m. from 32/2.

For more information about the launch, click the button.

Launch to space Tsiklon-3 | Meteor-3 5
Tsiklon-3 | Meteor-3 5

Agency: N/A

Status: Launch Successful

Launch date: Aug. 15, 1991, 9:15 a.m. UTC

Rocket: Tsiklon-3

Launch pad: 32/2

Location: Plesetsk Cosmodrome, Russian Federation

...

Latest news about this satellite

There are no fresh news available about this satellite. Check back as we update our databases every day.


Newsletter sign-up

Weekly statistics, charts and insights to help you stay on top of the space industry.